Location: Perryvale
(54.4667°N, 113.3833°W)
Time: 08:04:16
(UTC+00:00)

deb Explorer IX - Pass Details

Date: 26 May 2024
Orbit: 511 x 884 km, 38.7° (Epoch: 23 June)

Event Time Altitude Azimuth Distance (km) Brightness Sun altitude
Rises 05:46:29 0° 236° (SW) 3,057 ? -11.1°
Reaches altitude 10° 05:50:45 10° 202° (SSW) 2,029 ? -11.3°
Enters shadow 05:51:40 11° 191° (S) 1,940 ? -11.4°
